{"data":{"norad_id":64253,"intl_designator":"2025-119W","name":"STARLINK-33893","alt_names":[],"object_type":"PAYLOAD","status":"ACTIVE","operator":null,"country":"US","launch_date":"2025-06-03","launch_site_code":"AFETR","launch_vehicle":null,"mission":null,"orbit_class":"UNKNOWN","rcs_meters":null,"size_class":null,"mass_kg":null,"dimensions":null,"purposes":["comms"],"wikipedia_slug":null,"has_3d_model":false,"image_url":null,"decayed_at":null,"tle_current":{"epoch":"2026-09-20T09:19:11.255808Z","epoch_age_seconds":147294,"freshness":"FRESH","line1":"1 64253U 25119W   26263.38832472 -.00005610  00000+0 -19475-3 0  9996","line2":"2 64253  43.0021 287.6925 0001931 266.5004  93.5627 15.27536247 73945","mean_motion":15.27536247,"eccentricity":0.0001931,"inclination_deg":43.0021,"raan_deg":287.6925,"arg_perigee_deg":266.5004,"mean_anomaly_deg":93.5627,"bstar":-0.00019475,"rev_number":7394,"period_min":94.269448782514,"perigee_km":481.85519105463,"apogee_km":484.50503172305,"semimajor_km":6861.3171113888,"source":"CELESTRAK","updated_at":"2026-09-21T09:00:35.280532Z"}}}